Home > Weather > Germany > Geldern > Past weeks

Flag for Germany Weather past 2 weeks in Geldern, North Rhine-Westphalia, Germany

48 °F

Light rain. Fog.

Feels Like: 46 °F
Forecast: 46 / 52 °F
Wind: 5 mph from South

Location: Niederrhein

Current Time: Dec 1, 2015 at 2:27:55 PM

Latest Report: Dec 1, 2015 at 1:50 PM

Visibility: 3 mi

Pressure: 30.24 "Hg

Humidity: 94%

Dew point: 46 °F

Location of GeldernLocation

Historic Weather in Geldern — Graph


Geldern temperature yesterday

Maximum temperature yesterday: 54 °F (at 8:50 PM)
Minimum temperature yesterday: 45 °F (at 9:20 AM)
Average temperature yesterday: 50 °F

Past Weeks' High & Low Weather Summary

High61 °F (Nov 17, 12:50 PM)100% (Nov 25, 8:50 AM)30.24 "Hg (Nov 25, 8:50 AM)
Low32 °F (Nov 23, 6:50 AM)59% (Nov 18, 6:50 AM)29.39 "Hg (Nov 21, 4:50 AM)
Average45 °F83%29.85 "Hg
* Reported Nov 16 12:20 PM — Dec 1 12:50 PM, Geldern, Weather by CustomWeather, © 2015

Note: Actual official high and low records may vary slightly from our data, if they occured in-between our weather recording intervals... More about our weather records


Geldern weather history for previous 24 hours

Time TempWeatherWind HumidityBarometerVisibility
12:50 PM
Tue, Dec 1
48 °FFog.1 mph94%30.24 "Hg3 mi
12:20 PM46 °FFog.3 mph100%30.24 "Hg3 mi
11:50 AM46 °FPartly sunny.6 mph100%30.21 "Hg4 mi
11:20 AM48 °FPartly sunny.6 mph94%30.21 "Hg4 mi
10:50 AM46 °FDrizzle. Partly sunny.7 mph100%30.21 "Hg5 mi
10:20 AM46 °FDrizzle. Partly sunny.7 mph93%30.21 "Hg6 mi
9:50 AM46 °FDrizzle. Partly sunny.6 mph93%30.21 "HgN/A
8:50 AM46 °FPassing clouds.3 mph93%30.18 "HgN/A
8:20 AM46 °FPassing clouds.No wind93%30.18 "HgN/A
7:50 AM46 °FPassing clouds.2 mph93%30.18 "HgN/A
7:20 AM46 °FClear.3 mph87%30.15 "Hg10 mi
6:50 AM46 °FPassing clouds.3 mph87%30.15 "HgN/A
6:20 AM46 °FPassing clouds.No wind87%30.15 "HgN/A
5:50 AM46 °FPassing clouds.2 mph87%30.12 "HgN/A
5:20 AM46 °FPassing clouds.2 mph87%30.12 "HgN/A
4:50 AM46 °FPassing clouds.2 mph87%30.12 "HgN/A
11:50 PM
Mon, Nov 30
54 °FSprinkles. Passing clouds.16 mph94%29.92 "Hg4 mi
11:20 PM54 °FSprinkles. Passing clouds.21 mph94%29.92 "Hg5 mi
10:50 PM54 °FSprinkles. Passing clouds.23 mph94%29.92 "Hg5 mi
10:20 PM54 °FSprinkles. Passing clouds.21 mph94%29.89 "Hg4 mi
9:50 PM54 °FSprinkles. Passing clouds.21 mph94%29.89 "Hg4 mi
9:20 PM54 °FSprinkles. Passing clouds.22 mph88%29.86 "Hg4 mi
8:50 PM54 °FSprinkles. Passing clouds.22 mph88%29.86 "Hg4 mi
8:20 PM52 °FRain showers. Passing clouds.23 mph94%29.86 "Hg2 mi
7:50 PM52 °FRain showers. Passing clouds.21 mph94%29.83 "Hg2 mi
7:20 PM52 °FRain showers. Passing clouds.26 mph94%29.83 "Hg2 mi
6:50 PM52 °FSprinkles. Passing clouds.23 mph88%29.83 "Hg4 mi
6:20 PM52 °FSprinkles. Passing clouds.23 mph88%29.83 "Hg4 mi
5:50 PM52 °FPassing clouds.23 mph88%29.86 "Hg4 mi
5:20 PM52 °FSprinkles. Partly sunny.23 mph88%29.86 "Hg4 mi
4:50 PM52 °FSprinkles. Partly sunny.18 mph88%29.86 "Hg4 mi
4:20 PM52 °FLight rain. Partly sunny.20 mph88%29.86 "Hg4 mi
3:50 PM52 °FLight rain. Partly sunny.20 mph88%29.89 "Hg4 mi
3:20 PM52 °FLight rain. Fog.20 mph88%29.89 "Hg3 mi
2:50 PM52 °FLight rain. Fog.17 mph94%29.89 "Hg3 mi
2:20 PM52 °FLight rain. Fog.17 mph88%29.92 "Hg3 mi
Weather by CustomWeather, © 2015

See weather overviewHow to use our weather pages